KI7YRV Weather Reports


time (UTC)temp
C
wind
direction
speed
KPH
gust
KPH
rain 1hr
cm
rain 24hr
cm
rain mn
cm
humidity
%
barometer
mb
20260504190032 18 50 19.3 29.0 0.00 0.00 0.00 36 1012.8
20260504185019 18 66 19.3 27.4 0.00 0.00 0.00 36 1013.2
20260504184023 18 86 16.1 25.7 0.00 0.00 0.00 35 1013.5
20260504183048 18 34 11.3 17.7 0.00 0.00 0.00 36 1013.5
20260504182112 17 49 17.7 24.1 0.00 0.00 0.00 37 1013.2
20260504181018 17 65 19.3 22.5 0.00 0.00 0.00 37 1013.2
20260504180023 17 67 22.5 27.4 0.00 0.00 0.00 37 1013.4
20260504175027 17 79 19.3 27.4 0.00 0.00 0.00 37 1013.7
20260504174031 16 70 14.5 17.7 0.00 0.00 0.00 38 1013.7
20260504173018 17 59 22.5 29.0 0.00 0.00 0.00 38 1013.7
20260504172022 16 52 20.9 25.7 0.00 0.00 0.00 38 1013.6
20260504171026 16 87 19.3 29.0 0.00 0.00 0.00 38 1013.4
20260504151025 14 39 17.7 22.5 0.00 0.00 0.00 42 1013.0
20260504141016 10 31 8.0 9.7 0.00 0.00 0.00 56 1012.8
20260504081051 8 23 6.4 9.7 0.00 0.00 0.00 55 1012.0
20260504045049 11 211 4.8 6.4 0.00 0.00 0.00 43 1013.0
20260504044015 12 144 4.8 6.4 0.00 0.00 0.00 43 1013.0
20260504043020 12 145 8.0 9.7 0.00 0.00 0.00 43 1013.0
20260504042024 12 110 8.0 9.7 0.00 0.00 0.00 42 1012.9
20260504041029 12 90 9.7 9.7 0.00 0.00 0.00 42 1012.9
20260504040015 12 87 9.7 11.3 0.00 0.00 0.00 42 1012.9
20260504035019 13 62 9.7 9.7 0.00 0.00 0.00 42 1012.8
20260504034024 12 79 9.7 9.7 0.00 0.00 0.00 42 1012.6
20260504033027 12 64 9.7 9.7 0.00 0.00 0.00 41 1012.6
20260504032015 13 55 9.7 11.3 0.00 0.00 0.00 41 1012.5
20260504031019 13 68 9.7 9.7 0.00 0.00 0.00 41 1012.4
20260504030018 13 79 8.0 8.0 0.00 0.00 0.00 41 1012.4
20260504025057 13 65 8.0 8.0 0.00 0.00 0.00 40 1012.2
20260504024014 13 45 9.7 9.7 0.00 0.00 0.00 40 1012.1
20260504023040 15 45 9.7 11.3 0.00 0.00 0.00 39 1012.1
20260504022024 16 41 11.3 11.3 0.00 0.00 0.00 36 1012.1
20260504021028 16 27 12.9 14.5 0.00 0.00 0.00 35 1012.1
20260504020032 17 37 9.7 9.7 0.00 0.00 0.00 34 1011.8
20260504015019 18 9 12.9 12.9 0.00 0.00 0.00 32 1011.8
20260504014043 18 42 12.9 14.5 0.00 0.00 0.00 31 1011.8
20260504013028 18 11 16.1 19.3 0.00 0.00 0.00 30 1011.8
20260504012032 20 34 16.1 19.3 0.00 0.00 0.00 28 1011.8
20260504011019 21 30 14.5 17.7 0.00 0.00 0.00 27 1011.8
20260504010023 21 45 14.5 16.1 0.00 0.00 0.00 26 1012.0
20260504005028 22 22 6.4 9.7 0.00 0.00 0.00 25 1012.0
20260504004052 21 25 14.5 19.3 0.00 0.00 0.00 25 1012.0
20260504003018 22 52 11.3 16.1 0.00 0.00 0.00 24 1012.1
20260504002023 21 23 11.3 12.9 0.00 0.00 0.00 26 1012.1
20260504001047 22 21 9.7 14.5 0.00 0.00 0.00 25 1012.1
20260504000032 23 53 14.5 19.3 0.00 0.00 0.00 22 1012.2
20260503235038 22 5 17.7 22.5 0.00 0.00 0.00 25 1012.2
20260503234023 22 25 25.7 30.6 0.00 0.00 0.00 24 1012.2
20260503233047 23 307 19.3 30.6 0.00 0.00 0.00 20 1012.3
20260503232031 23 313 12.9 22.5 0.00 0.00 0.00 19 1012.4
20260503231018 24 308 17.7 22.5 0.00 0.00 0.00 19 1012.6
20260503230022 24 299 9.7 20.9 0.00 0.00 0.00 19 1012.6
20260503225046 23 28 8.0 12.9 0.00 0.00 0.00 19 1012.8
20260503224030 24 344 17.7 24.1 0.00 0.00 0.00 20 1012.8
20260503223017 23 9 9.7 14.5 0.00 0.00 0.00 20 1012.9
20260503222021 24 360 12.9 19.3 0.00 0.00 0.00 21 1012.9
20260503221026 23 12 9.7 19.3 0.00 0.00 0.00 21 1013.2
20260503220030 23 147 8.0 12.9 0.00 0.00 0.00 21 1013.4
20260503215017 22 95 6.4 11.3 0.00 0.00 0.00 22 1013.6
20260503214021 22 335 8.0 12.9 0.00 0.00 0.00 22 1013.8
20260503213026 22 2 16.1 20.9 0.00 0.00 0.00 24 1013.9
20260503212024 21 359 17.7 25.7 0.00 0.00 0.00 25 1014.0
20260503211016 22 64 8.0 9.7 0.00 0.00 0.00 21 1014.2
20260503210020 22 115 9.7 12.9 0.00 0.00 0.00 21 1014.3
20260503205019 22 96 11.3 14.5 0.00 0.00 0.00 21 1014.4
20260503204017 22 114 6.4 9.7 0.00 0.00 0.00 21 1014.6
20260503203016 23 179 6.4 12.9 0.00 0.00 0.00 19 1014.7
20260503202100 24 65 6.4 11.3 0.00 0.00 0.00 19 1014.8
20260503201024 22 265 19.3 33.8 0.00 0.00 0.00 21 1015.0
20260503200028 22 175 9.7 17.7 0.00 0.00 0.00 21 1015.3
20260503195015 22 228 9.7 12.9 0.00 0.00 0.00 22 1015.4
20260503194019 23 341 9.7 14.5 0.00 0.00 0.00 21 1015.6
20260503193023 23 5 6.4 12.9 0.00 0.00 0.00 23 1015.8
20260503192047 23 69 9.7 12.9 0.00 0.00 0.00 23 1015.9
20260503191032 -17 23 11.3 11.3 0.00 0.00 0.00 1016.2